Location: Chavenne
(46.6022°N, 3.2951°E)
Time: 13:34:37
(UTC+00:00)

ATLAS CENTAUR R/B - Pass Details

Date: 09 April 2020
Orbit: 466 x 681 km, 64.7° (Epoch: 20 May)

Event Time Altitude Azimuth Distance (km) Brightness Sun altitude
Rises 20:15:41 0° 330° (NNW) 2,695 6.0 -17.9°
Reaches altitude 10° 20:18:27 10° 349° (NNW) 1,758 4.5 -18.3°
Maximum altitude 20:21:18 19° 36° (NE) 1,247 3.1 -18.7°
Enters shadow 20:22:08 18° 53° (NE) 1,284 3.0 -18.8°
